Time,TemperatureF,DewpointF,PressureIn,WindDirection,WindDirectionDegrees,WindSpeedMPH,WindSpeedGustMPH,Humidity,HourlyPrecipIn,Conditions,Clouds,dailyrainin,SolarRadiationWatts/m^2,SoftwareType,DateUTC
2013-11-30 00:00:00,66.1,60.1,30.21,North,355,2.0,7.0,81,0.00,,,0.00,0.00,VWS V14.01,2013-11-30 05:00:00,
2013-11-30 00:01:00,66.2,60.2,30.21,NW,316,3.0,5.0,81,0.00,,,0.00,0.00,VWS V14.01,2013-11-30 05:01:00,
2013-11-30 00:06:00,66.1,60.1,30.21,NW,323,2.0,5.0,81,0.00,,,0.00,0.00,VWS V14.01,2013-11-30 05:06:00,
2013-11-30 00:11:00,66.0,60.0,30.21,NW,323,2.0,5.0,81,0.00,,,0.00,0.00,VWS V14.01,2013-11-30 05:11:00,
2013-11-30 00:15:00,66.0,60.0,30.21,NW,323,3.0,5.0,81,0.00,,,0.00,0.00,VWS V14.01,2013-11-30 05:15:00,
2013-11-30 00:16:00,65.9,59.9,30.21,NNW,328,5.0,6.0,81,0.00,,,0.00,0.00,VWS V14.01,2013-11-30 05:16:00,
2013-11-30 00:21:00,65.9,59.9,30.21,NNW,346,2.0,6.0,81,0.00,,,0.00,0.00,VWS V14.01,2013-11-30 05:21:00,
2013-11-30 00:26:00,65.8,59.8,30.20,NNW,339,5.0,6.0,81,0.00,,,0.00,0.00,VWS V14.01,2013-11-30 05:26:00,
2013-11-30 00:30:00,65.7,59.7,30.20,NW,324,4.0,6.0,81,0.00,,,0.00,0.00,VWS V14.01,2013-11-30 05:30:00,
2013-11-30 00:31:00,65.7,59.7,30.20,NNW,327,4.0,5.0,81,0.00,,,0.00,0.00,VWS V14.01,2013-11-30 05:31:00,
2013-11-30 00:36:00,65.6,59.6,30.21,NNW,327,3.0,6.0,81,0.00,,,0.00,0.00,VWS V14.01,2013-11-30 05:36:00,
2013-11-30 00:41:00,65.4,59.4,30.21,WNW,303,3.0,7.0,81,0.00,,,0.00,0.00,VWS V14.01,2013-11-30 05:41:00,
2013-11-30 00:45:00,65.3,59.3,30.21,NW,310,4.0,7.0,81,0.00,,,0.00,0.00,VWS V14.01,2013-11-30 05:45:00,
2013-11-30 00:46:00,65.2,59.2,30.20,WNW,297,4.0,5.0,81,0.00,,,0.00,0.00,VWS V14.01,2013-11-30 05:46:00,
2013-11-30 00:51:00,64.9,59.3,30.20,NNW,328,2.0,6.0,82,0.00,,,0.00,0.00,VWS V14.01,2013-11-30 05:51:00,
2013-11-30 00:56:00,64.7,59.1,30.20,NNW,331,3.0,6.0,82,0.00,,,0.00,0.00,VWS V14.01,2013-11-30 05:56:00,
2013-11-30 01:00:00,64.6,59.3,30.20,NNW,327,1.0,6.0,83,0.00,,,0.00,0.00,VWS V14.01,2013-11-30 06:00:00,
2013-11-30 01:01:00,64.5,59.2,30.20,NW,317,4.0,5.0,83,0.00,,,0.00,0.00,VWS V14.01,2013-11-30 06:01:00,
2013-11-30 01:06:00,64.3,59.0,30.20,NNW,333,3.0,6.0,83,0.00,,,0.00,0.00,VWS V14.01,2013-11-30 06:06:00,
2013-11-30 01:11:00,64.2,59.3,30.19,NW,316,3.0,6.0,84,0.00,,,0.00,0.00,VWS V14.01,2013-11-30 06:11:00,
2013-11-30 01:15:00,64.1,59.2,30.19,NW,317,5.0,6.0,84,0.00,,,0.00,0.00,VWS V14.01,2013-11-30 06:15:00,
2013-11-30 01:16:00,64.1,59.2,30.19,NW,310,4.0,5.0,84,0.00,,,0.00,0.00,VWS V14.01,2013-11-30 06:16:00,
2013-11-30 01:21:00,63.9,59.3,30.19,NW,314,3.0,5.0,85,0.00,,,0.00,0.00,VWS V14.01,2013-11-30 06:21:00,
2013-11-30 01:26:00,63.7,59.1,30.19,NW,324,3.0,7.0,85,0.00,,,0.00,0.00,VWS V14.01,2013-11-30 06:26:00,
2013-11-30 01:30:00,63.6,59.0,30.19,North,355,2.0,7.0,85,0.00,,,0.00,0.00,VWS V14.01,2013-11-30 06:30:00,
2013-11-30 01:31:00,63.5,58.9,30.19,NW,318,5.0,5.0,85,0.00,,,0.00,0.00,VWS V14.01,2013-11-30 06:31:00,
2013-11-30 01:36:00,63.4,59.2,30.19,NNW,341,5.0,7.0,86,0.00,,,0.00,0.00,VWS V14.01,2013-11-30 06:36:00,
2013-11-30 01:41:00,63.2,59.0,30.19,WNW,302,3.0,8.0,86,0.00,,,0.00,0.00,VWS V14.01,2013-11-30 06:41:00,
2013-11-30 01:45:00,63.2,59.0,30.19,NW,309,6.0,8.0,86,0.00,,,0.00,0.00,VWS V14.01,2013-11-30 06:45:00,
2013-11-30 01:46:00,63.2,59.0,30.19,NNW,335,6.0,6.0,86,0.00,,,0.00,0.00,VWS V14.01,2013-11-30 06:46:00,
2013-11-30 01:51:00,63.1,59.2,30.19,NNW,332,5.0,7.0,87,0.00,,,0.00,0.00,VWS V14.01,2013-11-30 06:51:00,
2013-11-30 01:56:00,62.9,59.0,30.19,WNW,302,4.0,8.0,87,0.00,,,0.00,0.00,VWS V14.01,2013-11-30 06:56:00,
2013-11-30 02:00:00,62.9,59.0,30.19,NNW,338,3.0,8.0,87,0.00,,,0.00,0.00,VWS V14.01,2013-11-30 07:00:00,
2013-11-30 02:01:00,62.8,58.9,30.19,NW,314,4.0,5.0,87,0.00,,,0.00,0.00,VWS V14.01,2013-11-30 07:01:00,
2013-11-30 02:06:00,62.6,58.7,30.19,NW,318,4.0,8.0,87,0.00,,,0.00,0.00,VWS V14.01,2013-11-30 07:06:00,
2013-11-30 02:11:00,62.4,58.8,30.19,NW,319,7.0,8.0,88,0.00,,,0.00,0.00,VWS V14.01,2013-11-30 07:11:00,
2013-11-30 02:15:00,62.3,58.7,30.19,WNW,289,4.0,8.0,88,0.00,,,0.00,0.00,VWS V14.01,2013-11-30 07:15:00,
2013-11-30 02:16:00,62.2,58.6,30.19,NNW,343,6.0,6.0,88,0.00,,,0.00,0.00,VWS V14.01,2013-11-30 07:16:00,
2013-11-30 02:21:00,62.1,58.5,30.19,NW,318,3.0,10.0,88,0.00,,,0.00,0.00,VWS V14.01,2013-11-30 07:21:00,
2013-11-30 02:26:00,62.1,58.5,30.19,NNW,337,3.0,10.0,88,0.00,,,0.00,0.00,VWS V14.01,2013-11-30 07:26:00,
2013-11-30 02:30:00,62.1,58.5,30.19,NNW,332,5.0,10.0,88,0.00,,,0.00,0.00,VWS V14.01,2013-11-30 07:30:00,
2013-11-30 02:31:00,62.0,58.4,30.19,NNW,329,4.0,7.0,88,0.00,,,0.00,0.00,VWS V14.01,2013-11-30 07:31:00,
2013-11-30 02:36:00,62.0,58.7,30.19,NNW,340,6.0,7.0,89,0.00,,,0.00,0.00,VWS V14.01,2013-11-30 07:36:00,
2013-11-30 02:41:00,61.9,58.6,30.18,NNW,328,3.0,9.0,89,0.00,,,0.00,0.00,VWS V14.01,2013-11-30 07:41:00,
2013-11-30 02:45:00,61.9,58.6,30.18,NNW,340,5.0,9.0,89,0.00,,,0.00,0.00,VWS V14.01,2013-11-30 07:45:00,
2013-11-30 02:46:00,61.9,58.6,30.18,NW,318,5.0,6.0,89,0.00,,,0.00,0.00,VWS V14.01,2013-11-30 07:46:00,
2013-11-30 02:51:00,61.8,58.5,30.18,NNW,328,3.0,7.0,89,0.00,,,0.00,0.00,VWS V14.01,2013-11-30 07:51:00,
2013-11-30 02:56:00,61.8,58.5,30.18,NW,323,5.0,7.0,89,0.00,,,0.00,0.00,VWS V14.01,2013-11-30 07:56:00,
2013-11-30 03:00:00,61.8,58.5,30.18,NW,325,5.0,7.0,89,0.00,,,0.00,0.00,VWS V14.01,2013-11-30 08:00:00,
2013-11-30 03:01:00,61.8,58.5,30.18,WNW,300,4.0,6.0,89,0.00,,,0.00,0.00,VWS V14.01,2013-11-30 08:01:00,
2013-11-30 03:06:00,61.8,58.5,30.18,NNW,327,4.0,8.0,89,0.00,,,0.00,0.00,VWS V14.01,2013-11-30 08:06:00,
2013-11-30 03:11:00,61.8,58.5,30.18,NW,318,3.0,8.0,89,0.00,,,0.00,0.00,VWS V14.01,2013-11-30 08:11:00,
2013-11-30 03:15:00,61.9,58.6,30.18,NNW,340,3.0,8.0,89,0.00,,,0.00,0.00,VWS V14.01,2013-11-30 08:15:00,
2013-11-30 03:16:00,61.9,58.6,30.18,NW,326,4.0,5.0,89,0.00,,,0.00,0.00,VWS V14.01,2013-11-30 08:16:00,
2013-11-30 03:21:00,61.9,58.6,30.18,NNW,342,3.0,7.0,89,0.00,,,0.00,0.00,VWS V14.01,2013-11-30 08:21:00,
2013-11-30 03:26:00,61.9,58.6,30.18,NNW,331,3.0,7.0,89,0.00,,,0.00,0.00,VWS V14.01,2013-11-30 08:26:00,
2013-11-30 03:30:00,62.0,58.7,30.18,NNW,330,5.0,7.0,89,0.00,,,0.00,0.00,VWS V14.01,2013-11-30 08:30:00,
2013-11-30 03:31:00,62.0,58.7,30.17,NW,323,6.0,6.0,89,0.00,,,0.00,0.00,VWS V14.01,2013-11-30 08:31:00,
2013-11-30 03:36:00,62.0,58.7,30.18,NNW,337,3.0,6.0,89,0.00,,,0.00,0.00,VWS V14.01,2013-11-30 08:36:00,
2013-11-30 03:41:00,62.0,58.7,30.18,NNW,342,2.0,6.0,89,0.00,,,0.00,0.00,VWS V14.01,2013-11-30 08:41:00,
2013-11-30 03:45:00,62.0,58.7,30.18,NNW,331,4.0,6.0,89,0.00,,,0.00,0.00,VWS V14.01,2013-11-30 08:45:00,
2013-11-30 03:46:00,62.0,58.7,30.18,NNW,330,4.0,5.0,89,0.00,,,0.00,0.00,VWS V14.01,2013-11-30 08:46:00,
2013-11-30 03:51:00,62.0,58.7,30.18,NNW,333,3.0,5.0,89,0.00,,,0.00,0.00,VWS V14.01,2013-11-30 08:51:00,
2013-11-30 03:56:00,62.1,58.8,30.18,NNW,346,5.0,6.0,89,0.00,,,0.00,0.00,VWS V14.01,2013-11-30 08:56:00,
2013-11-30 04:00:00,62.1,58.8,30.18,NNW,344,5.0,6.0,89,0.00,,,0.00,0.00,VWS V14.01,2013-11-30 09:00:00,
2013-11-30 04:01:00,62.2,58.9,30.18,NW,312,4.0,5.0,89,0.00,,,0.00,0.00,VWS V14.01,2013-11-30 09:01:00,
2013-11-30 04:06:00,62.2,58.9,30.18,NW,321,3.0,7.0,89,0.00,,,0.00,0.00,VWS V14.01,2013-11-30 09:06:00,
2013-11-30 04:11:00,62.2,58.9,30.18,NW,308,6.0,7.0,89,0.00,,,0.00,0.00,VWS V14.01,2013-11-30 09:11:00,
2013-11-30 04:15:00,62.2,58.9,30.18,NW,324,4.0,7.0,89,0.00,,,0.00,0.00,VWS V14.01,2013-11-30 09:15:00,
2013-11-30 04:16:00,62.2,58.9,30.18,NNW,328,4.0,5.0,89,0.00,,,0.00,0.00,VWS V14.01,2013-11-30 09:16:00,
2013-11-30 04:21:00,62.1,58.8,30.18,NNW,346,5.0,8.0,89,0.00,,,0.00,0.00,VWS V14.01,2013-11-30 09:21:00,
2013-11-30 04:26:00,62.0,58.7,30.18,North,360,11.0,11.0,89,0.00,,,0.00,0.00,VWS V14.01,2013-11-30 09:26:00,
2013-11-30 04:30:00,62.0,58.7,30.18,NW,317,4.0,11.0,89,0.00,,,0.00,0.00,VWS V14.01,2013-11-30 09:30:00,
2013-11-30 04:31:00,62.0,58.7,30.18,WNW,303,6.0,6.0,89,0.00,,,0.00,0.00,VWS V14.01,2013-11-30 09:31:00,
2013-11-30 04:36:00,62.0,58.7,30.17,WNW,296,3.0,7.0,89,0.00,,,0.00,0.00,VWS V14.01,2013-11-30 09:36:00,
2013-11-30 04:41:00,61.9,58.6,30.17,NW,316,6.0,7.0,89,0.00,,,0.00,0.00,VWS V14.01,2013-11-30 09:41:00,
2013-11-30 04:45:00,61.8,58.5,30.17,NNW,342,4.0,8.0,89,0.00,,,0.00,0.00,VWS V14.01,2013-11-30 09:45:00,
2013-11-30 04:46:00,61.8,58.5,30.17,NW,317,4.0,5.0,89,0.00,,,0.00,0.00,VWS V14.01,2013-11-30 09:46:00,
2013-11-30 04:51:00,61.8,58.5,30.17,NNW,335,5.0,8.0,89,0.00,,,0.00,0.00,VWS V14.01,2013-11-30 09:51:00,
2013-11-30 04:56:00,61.7,58.4,30.17,NW,323,4.0,8.0,89,0.00,,,0.00,0.00,VWS V14.01,2013-11-30 09:56:00,
2013-11-30 05:00:00,61.6,58.3,30.17,NW,319,5.0,9.0,89,0.00,,,0.00,0.00,VWS V14.01,2013-11-30 10:00:00,
2013-11-30 05:01:00,61.6,58.3,30.17,NW,315,5.0,6.0,89,0.00,,,0.00,0.00,VWS V14.01,2013-11-30 10:01:00,
2013-11-30 05:06:00,61.5,58.2,30.17,WNW,301,1.0,8.0,89,0.00,,,0.00,0.00,VWS V14.01,2013-11-30 10:06:00,
2013-11-30 05:11:00,61.5,58.5,30.17,NNW,332,1.0,8.0,90,0.00,,,0.00,0.00,VWS V14.01,2013-11-30 10:11:00,
2013-11-30 05:15:00,61.4,58.5,30.17,NW,325,6.0,8.0,90,0.00,,,0.00,0.00,VWS V14.01,2013-11-30 10:15:00,
2013-11-30 05:16:00,61.5,58.5,30.17,NW,320,3.0,6.0,90,0.00,,,0.00,0.00,VWS V14.01,2013-11-30 10:16:00,
2013-11-30 05:21:00,61.4,58.5,30.17,NNW,332,4.0,6.0,90,0.00,,,0.00,0.00,VWS V14.01,2013-11-30 10:21:00,
2013-11-30 05:26:00,61.4,58.5,30.17,NNW,327,3.0,6.0,90,0.00,,,0.00,0.00,VWS V14.01,2013-11-30 10:26:00,
2013-11-30 05:30:00,61.4,58.5,30.17,North,355,4.0,7.0,90,0.00,,,0.00,0.00,VWS V14.01,2013-11-30 10:30:00,
2013-11-30 05:31:00,61.4,58.5,30.17,NW,313,5.0,5.0,90,0.00,,,0.00,0.00,VWS V14.01,2013-11-30 10:31:00,
2013-11-30 05:36:00,61.4,58.5,30.17,NNW,329,4.0,7.0,90,0.00,,,0.00,0.00,VWS V14.01,2013-11-30 10:36:00,
2013-11-30 05:41:00,61.4,58.5,30.17,NNW,328,2.0,7.0,90,0.00,,,0.00,0.00,VWS V14.01,2013-11-30 10:41:00,
2013-11-30 05:45:00,61.4,58.5,30.17,NNW,330,2.0,7.0,90,0.00,,,0.00,0.00,VWS V14.01,2013-11-30 10:45:00,
2013-11-30 05:46:00,61.4,58.5,30.17,NNW,330,4.0,5.0,90,0.00,,,0.00,0.00,VWS V14.01,2013-11-30 10:46:00,
2013-11-30 05:51:00,61.4,58.5,30.17,NNW,335,3.0,5.0,90,0.00,,,0.00,0.00,VWS V14.01,2013-11-30 10:51:00,
2013-11-30 05:56:00,61.4,58.5,30.17,NNW,335,3.0,5.0,90,0.00,,,0.00,0.00,VWS V14.01,2013-11-30 10:56:00,
2013-11-30 06:00:00,61.5,58.5,30.17,North,355,2.0,5.0,90,0.00,,,0.00,0.00,VWS V14.01,2013-11-30 11:00:00,
2013-11-30 06:01:00,61.5,58.5,30.17,North,355,2.0,4.0,90,0.00,,,0.00,0.00,VWS V14.01,2013-11-30 11:01:00,
2013-11-30 06:06:00,61.5,58.5,30.17,North,355,2.0,4.0,90,0.00,,,0.00,0.00,VWS V14.01,2013-11-30 11:06:00,
2013-11-30 06:11:00,61.5,58.5,30.17,North,355,3.0,4.0,90,0.00,,,0.00,0.00,VWS V14.01,2013-11-30 11:11:00,
2013-11-30 06:15:00,61.5,58.5,30.17,North,355,2.0,5.0,90,0.00,,,0.00,0.00,VWS V14.01,2013-11-30 11:15:00,
2013-11-30 06:16:00,61.5,58.5,30.17,North,355,4.0,4.0,90,0.00,,,0.00,0.00,VWS V14.01,2013-11-30 11:16:00,
2013-11-30 06:21:00,61.5,58.5,30.17,North,349,4.0,5.0,90,0.00,,,0.00,0.00,VWS V14.01,2013-11-30 11:21:00,
2013-11-30 06:26:00,61.5,58.5,30.18,NW,320,3.0,5.0,90,0.00,,,0.00,0.00,VWS V14.01,2013-11-30 11:26:00,
2013-11-30 06:30:00,61.5,58.5,30.18,NW,325,3.0,5.0,90,0.00,,,0.00,0.00,VWS V14.01,2013-11-30 11:30:00,
2013-11-30 06:31:00,61.5,58.5,30.18,NNW,333,3.0,5.0,90,0.00,,,0.00,0.00,VWS V14.01,2013-11-30 11:31:00,
2013-11-30 06:36:00,61.5,58.5,30.18,NW,315,4.0,7.0,90,0.00,,,0.00,0.00,VWS V14.01,2013-11-30 11:36:00,
2013-11-30 06:41:00,61.6,58.6,30.18,NNW,332,2.0,8.0,90,0.00,,,0.00,0.00,VWS V14.01,2013-11-30 11:41:00,
2013-11-30 06:45:00,61.5,58.5,30.18,North,351,4.0,8.0,90,0.00,,,0.00,0.00,VWS V14.01,2013-11-30 11:45:00,
2013-11-30 06:46:00,61.5,58.5,30.18,NNW,337,3.0,4.0,90,0.00,,,0.00,0.00,VWS V14.01,2013-11-30 11:46:00,
2013-11-30 06:51:00,61.6,58.6,30.18,NNW,333,5.0,5.0,90,0.00,,,0.00,0.00,VWS V14.01,2013-11-30 11:51:00,
2013-11-30 06:56:00,61.6,58.6,30.19,NW,319,3.0,7.0,90,0.00,,,0.00,0.00,VWS V14.01,2013-11-30 11:56:00,
2013-11-30 07:00:00,61.6,58.6,30.19,NNW,327,5.0,7.0,90,0.00,,,0.00,0.00,VWS V14.01,2013-11-30 12:00:00,
2013-11-30 07:01:00,61.6,58.6,30.19,WNW,300,4.0,7.0,90,0.00,,,0.00,0.00,VWS V14.01,2013-11-30 12:01:00,
2013-11-30 07:06:00,61.6,58.6,30.19,NNW,336,4.0,7.0,90,0.00,,,0.00,0.00,VWS V14.01,2013-11-30 12:06:00,
2013-11-30 07:11:00,61.6,58.6,30.19,NW,325,5.0,7.0,90,0.00,,,0.00,0.00,VWS V14.01,2013-11-30 12:11:00,
2013-11-30 07:15:00,61.6,58.6,30.19,NNW,331,5.0,7.0,90,0.00,,,0.00,0.00,VWS V14.01,2013-11-30 12:15:00,
2013-11-30 07:16:00,61.6,58.6,30.19,NNW,338,5.0,6.0,90,0.00,,,0.00,0.00,VWS V14.01,2013-11-30 12:16:00,
2013-11-30 07:21:00,61.6,58.6,30.19,NNW,329,7.0,8.0,90,0.00,,,0.00,0.00,VWS V14.01,2013-11-30 12:21:00,
2013-11-30 07:26:00,61.6,58.6,30.20,NW,319,3.0,8.0,90,0.00,,,0.00,0.00,VWS V14.01,2013-11-30 12:26:00,
2013-11-30 07:30:00,61.6,58.6,30.20,NW,317,4.0,9.0,90,0.00,,,0.00,0.00,VWS V14.01,2013-11-30 12:30:00,
2013-11-30 07:31:00,61.6,58.6,30.20,NW,313,4.0,7.0,90,0.00,,,0.00,0.00,VWS V14.01,2013-11-30 12:31:00,
2013-11-30 07:36:00,61.7,58.7,30.20,NNW,333,7.0,8.0,90,0.00,,,0.00,0.00,VWS V14.01,2013-11-30 12:36:00,
2013-11-30 07:41:00,61.8,58.8,30.20,NW,322,4.0,8.0,90,0.00,,,0.00,0.00,VWS V14.01,2013-11-30 12:41:00,
2013-11-30 07:45:00,61.9,58.9,30.19,North,355,5.0,9.0,90,0.00,,,0.00,0.00,VWS V14.01,2013-11-30 12:45:00,
2013-11-30 07:46:00,61.9,58.9,30.20,NW,321,4.0,5.0,90,0.00,,,0.00,0.00,VWS V14.01,2013-11-30 12:46:00,
2013-11-30 07:51:00,62.1,59.1,30.19,NNW,329,4.0,9.0,90,0.00,,,0.00,0.00,VWS V14.01,2013-11-30 12:51:00,
2013-11-30 07:56:00,62.5,59.5,30.19,NNW,348,7.0,9.0,90,0.00,,,0.00,0.00,VWS V14.01,2013-11-30 12:56:00,
2013-11-30 08:00:00,62.7,59.7,30.20,NNW,338,3.0,9.0,90,0.00,,,0.00,0.00,VWS V14.01,2013-11-30 13:00:00,
2013-11-30 08:01:00,62.9,59.9,30.20,North,360,6.0,7.0,90,0.00,,,0.00,0.00,VWS V14.01,2013-11-30 13:01:00,
2013-11-30 08:06:00,63.2,60.2,30.20,NNW,343,5.0,8.0,90,0.00,,,0.00,0.00,VWS V14.01,2013-11-30 13:06:00,
2013-11-30 08:11:00,63.5,60.2,30.19,North,355,3.0,9.0,89,0.00,,,0.00,0.00,VWS V14.01,2013-11-30 13:11:00,
2013-11-30 08:15:00,63.7,60.1,30.19,NNW,331,6.0,9.0,88,0.00,,,0.00,0.00,VWS V14.01,2013-11-30 13:15:00,
2013-11-30 08:16:00,63.7,60.1,30.20,NW,321,4.0,6.0,88,0.00,,,0.00,0.00,VWS V14.01,2013-11-30 13:16:00,
2013-11-30 08:21:00,64.0,60.4,30.20,NNW,342,4.0,7.0,88,0.00,,,0.00,0.00,VWS V14.01,2013-11-30 13:21:00,
2013-11-30 08:26:00,64.3,60.3,30.20,North,350,7.0,11.0,87,0.00,,,0.00,0.00,VWS V14.01,2013-11-30 13:26:00,
2013-11-30 08:30:00,64.7,60.8,30.20,NNW,346,5.0,11.0,87,0.00,,,0.00,0.00,VWS V14.01,2013-11-30 13:30:00,
2013-11-30 08:31:00,64.8,60.8,30.20,NNW,330,5.0,6.0,87,0.00,,,0.00,0.00,VWS V14.01,2013-11-30 13:31:00,
2013-11-30 08:36:00,65.1,60.8,30.20,North,5,5.0,7.0,86,0.00,,,0.00,0.00,VWS V14.01,2013-11-30 13:36:00,
2013-11-30 08:41:00,65.6,61.3,30.20,NNW,348,3.0,8.0,86,0.00,,,0.00,0.00,VWS V14.01,2013-11-30 13:41:00,
2013-11-30 08:45:00,66.2,61.6,30.20,North,350,5.0,8.0,85,0.00,,,0.00,0.00,VWS V14.01,2013-11-30 13:45:00,
2013-11-30 08:46:00,66.3,61.7,30.20,North,9,3.0,6.0,85,0.00,,,0.00,0.00,VWS V14.01,2013-11-30 13:46:00,
2013-11-30 08:51:00,66.9,61.9,30.20,NNW,347,4.0,6.0,84,0.00,,,0.00,0.00,VWS V14.01,2013-11-30 13:51:00,
2013-11-30 08:56:00,67.2,61.9,30.21,North,355,4.0,9.0,83,0.00,,,0.00,0.00,VWS V14.01,2013-11-30 13:56:00,
2013-11-30 09:00:00,67.4,61.7,30.21,NW,315,5.0,9.0,82,0.00,,,0.00,0.00,VWS V14.01,2013-11-30 14:00:00,
2013-11-30 09:01:00,67.5,61.8,30.21,NNW,340,4.0,6.0,82,0.00,,,0.00,0.00,VWS V14.01,2013-11-30 14:01:00,
2013-11-30 09:06:00,67.8,62.1,30.21,North,355,6.0,8.0,82,0.00,,,0.00,0.00,VWS V14.01,2013-11-30 14:06:00,
2013-11-30 09:11:00,68.1,62.4,30.20,NNW,331,5.0,8.0,82,0.00,,,0.00,0.00,VWS V14.01,2013-11-30 14:11:00,
2013-11-30 09:15:00,68.5,62.5,30.21,NNW,339,6.0,8.0,81,0.00,,,0.00,0.00,VWS V14.01,2013-11-30 14:15:00,
2013-11-30 09:16:00,68.6,62.2,30.21,NNW,327,3.0,6.0,80,0.00,,,0.00,0.00,VWS V14.01,2013-11-30 14:16:00,
2013-11-30 09:21:00,68.9,62.5,30.21,North,350,5.0,9.0,80,0.00,,,0.00,0.00,VWS V14.01,2013-11-30 14:21:00,
2013-11-30 09:26:00,69.4,62.6,30.21,NNW,343,7.0,9.0,79,0.00,,,0.00,0.00,VWS V14.01,2013-11-30 14:26:00,
2013-11-30 09:30:00,69.5,62.7,30.21,NNW,331,4.0,9.0,79,0.00,,,0.00,0.00,VWS V14.01,2013-11-30 14:30:00,
2013-11-30 09:31:00,69.6,62.8,30.21,North,349,3.0,6.0,79,0.00,,,0.00,0.00,VWS V14.01,2013-11-30 14:31:00,
2013-11-30 09:36:00,70.1,62.9,30.21,NNW,327,7.0,8.0,78,0.00,,,0.00,0.00,VWS V14.01,2013-11-30 14:36:00,
2013-11-30 09:41:00,70.2,63.0,30.21,NNW,338,4.0,8.0,78,0.00,,,0.00,0.00,VWS V14.01,2013-11-30 14:41:00,
2013-11-30 09:45:00,70.5,63.3,30.21,NW,314,3.0,8.0,78,0.00,,,0.00,0.00,VWS V14.01,2013-11-30 14:45:00,
2013-11-30 09:46:00,70.6,63.4,30.21,North,355,5.0,7.0,78,0.00,,,0.00,0.00,VWS V14.01,2013-11-30 14:46:00,
2013-11-30 09:51:00,70.8,63.2,30.21,NNW,345,4.0,9.0,77,0.00,,,0.00,0.00,VWS V14.01,2013-11-30 14:51:00,
2013-11-30 09:56:00,71.4,63.5,30.21,NW,311,4.0,9.0,76,0.00,,,0.00,0.00,VWS V14.01,2013-11-30 14:56:00,
2013-11-30 10:00:00,71.7,63.7,30.21,NNE,13,6.0,9.0,76,0.00,,,0.00,0.00,VWS V14.01,2013-11-30 15:00:00,
2013-11-30 10:01:00,71.8,63.8,30.21,NNE,15,5.0,6.0,76,0.00,,,0.00,0.00,VWS V14.01,2013-11-30 15:01:00,
2013-11-30 10:06:00,72.3,64.3,30.21,NW,319,3.0,9.0,76,0.00,,,0.00,0.00,VWS V14.01,2013-11-30 15:06:00,
2013-11-30 10:11:00,72.3,63.9,30.21,NNW,343,5.0,9.0,75,0.00,,,0.00,0.00,VWS V14.01,2013-11-30 15:11:00,
2013-11-30 10:15:00,72.5,64.1,30.21,NW,312,5.0,9.0,75,0.00,,,0.00,0.00,VWS V14.01,2013-11-30 15:15:00,
2013-11-30 10:16:00,72.6,64.2,30.21,NNW,339,5.0,8.0,75,0.00,,,0.00,0.00,VWS V14.01,2013-11-30 15:16:00,
2013-11-30 10:21:00,72.8,64.4,30.21,NNW,348,4.0,9.0,75,0.00,,,0.00,0.00,VWS V14.01,2013-11-30 15:21:00,
2013-11-30 10:26:00,73.3,64.5,30.21,NNE,19,7.0,9.0,74,0.00,,,0.00,0.00,VWS V14.01,2013-11-30 15:26:00,
2013-11-30 10:30:00,73.5,64.7,30.20,NNW,335,5.0,10.0,74,0.00,,,0.00,0.00,VWS V14.01,2013-11-30 15:30:00,
2013-11-30 10:31:00,73.5,64.7,30.20,NNW,344,5.0,7.0,74,0.00,,,0.00,0.00,VWS V14.01,2013-11-30 15:31:00,
2013-11-30 10:36:00,73.9,64.7,30.20,NNE,17,8.0,9.0,73,0.00,,,0.00,0.00,VWS V14.01,2013-11-30 15:36:00,
2013-11-30 10:41:00,74.2,64.6,30.20,North,350,7.0,9.0,72,0.00,,,0.00,0.00,VWS V14.01,2013-11-30 15:41:00,
2013-11-30 10:45:00,74.3,65.1,30.20,NW,321,6.0,9.0,73,0.00,,,0.00,0.00,VWS V14.01,2013-11-30 15:45:00,
2013-11-30 10:46:00,74.4,65.2,30.20,NNW,346,4.0,6.0,73,0.00,,,0.00,0.00,VWS V14.01,2013-11-30 15:46:00,
2013-11-30 10:51:00,74.7,65.1,30.20,NW,317,3.0,9.0,72,0.00,,,0.00,0.00,VWS V14.01,2013-11-30 15:51:00,
2013-11-30 10:56:00,75.0,65.4,30.20,NNW,336,5.0,10.0,72,0.00,,,0.00,0.00,VWS V14.01,2013-11-30 15:56:00,
2013-11-30 11:00:00,75.5,65.4,30.19,North,355,3.0,10.0,71,0.00,,,0.00,0.00,VWS V14.01,2013-11-30 16:00:00,
2013-11-30 11:01:00,75.6,65.5,30.19,NNW,346,3.0,4.0,71,0.00,,,0.00,0.00,VWS V14.01,2013-11-30 16:01:00,
2013-11-30 11:06:00,76.0,65.9,30.19,NNW,348,6.0,9.0,71,0.00,,,0.00,0.00,VWS V14.01,2013-11-30 16:06:00,
2013-11-30 11:11:00,75.9,65.8,30.19,North,351,7.0,11.0,71,0.00,,,0.00,0.00,VWS V14.01,2013-11-30 16:11:00,
2013-11-30 11:15:00,75.8,65.7,30.19,North,355,4.0,11.0,71,0.00,,,0.00,0.00,VWS V14.01,2013-11-30 16:15:00,
2013-11-30 11:16:00,76.0,66.3,30.18,NNW,331,8.0,11.0,72,0.00,,,0.00,0.00,VWS V14.01,2013-11-30 16:16:00,
2013-11-30 11:21:00,76.8,66.3,30.18,NNE,20,3.0,11.0,70,0.00,,,0.00,0.00,VWS V14.01,2013-11-30 16:21:00,
2013-11-30 11:26:00,77.7,66.7,30.18,NNW,348,7.0,11.0,69,0.00,,,0.00,0.00,VWS V14.01,2013-11-30 16:26:00,
2013-11-30 11:30:00,77.3,66.8,30.18,North,360,5.0,11.0,70,0.00,,,0.00,0.00,VWS V14.01,2013-11-30 16:30:00,
2013-11-30 11:31:00,77.2,66.7,30.18,NNW,329,11.0,12.0,70,0.00,,,0.00,0.00,VWS V14.01,2013-11-30 16:31:00,
2013-11-30 11:36:00,76.1,66.8,30.18,NNE,13,9.0,19.0,73,0.00,,,0.00,0.00,VWS V14.01,2013-11-30 16:36:00,
2013-11-30 11:41:00,75.2,67.1,30.18,NE,55,8.0,19.0,76,0.00,,,0.00,0.00,VWS V14.01,2013-11-30 16:41:00,
2013-11-30 11:45:00,74.0,66.7,30.18,NE,41,4.0,19.0,78,0.00,,,0.00,0.00,VWS V14.01,2013-11-30 16:45:00,
2013-11-30 11:46:00,73.8,66.5,30.18,NE,55,4.0,9.0,78,0.00,,,0.00,0.00,VWS V14.01,2013-11-30 16:46:00,
2013-11-30 11:51:00,73.2,67.4,30.18,NNW,333,9.0,10.0,82,0.00,,,0.00,0.00,VWS V14.01,2013-11-30 16:51:00,
2013-11-30 11:56:00,72.1,66.7,30.18,NNE,26,15.0,15.0,83,0.01,,,0.01,0.00,VWS V14.01,2013-11-30 16:56:00,
2013-11-30 12:00:00,71.5,66.8,30.18,NNE,28,8.0,15.0,85,0.01,,,0.01,0.00,VWS V14.01,2013-11-30 17:00:00,
2013-11-30 12:01:00,71.4,66.7,30.18,NNE,14,8.0,11.0,85,0.01,,,0.01,0.00,VWS V14.01,2013-11-30 17:01:00,
2013-11-30 12:06:00,70.9,66.8,30.18,North,11,7.0,15.0,87,0.02,,,0.02,0.00,VWS V14.01,2013-11-30 17:06:00,
2013-11-30 12:11:00,70.7,67.0,30.17,North,5,3.0,15.0,88,0.04,,,0.04,0.00,VWS V14.01,2013-11-30 17:11:00,
2013-11-30 12:15:00,70.8,67.1,30.18,NNE,19,4.0,15.0,88,0.08,,,0.08,0.00,VWS V14.01,2013-11-30 17:15:00,
2013-11-30 12:16:00,70.8,67.1,30.17,NNE,24,5.0,8.0,88,0.10,,,0.10,0.00,VWS V14.01,2013-11-30 17:16:00,
2013-11-30 12:21:00,70.6,67.2,30.17,North,11,3.0,8.0,89,0.12,,,0.12,0.00,VWS V14.01,2013-11-30 17:21:00,
2013-11-30 12:26:00,70.7,67.3,30.17,North,360,4.0,8.0,89,0.12,,,0.12,0.00,VWS V14.01,2013-11-30 17:26:00,
2013-11-30 12:30:00,71.0,67.9,30.17,NE,42,3.0,8.0,90,0.12,,,0.12,0.00,VWS V14.01,2013-11-30 17:30:00,
2013-11-30 12:31:00,71.2,68.1,30.17,NE,53,3.0,4.0,90,0.12,,,0.12,0.00,VWS V14.01,2013-11-30 17:31:00,
2013-11-30 12:36:00,71.6,68.5,30.16,NNE,20,6.0,8.0,90,0.12,,,0.12,0.00,VWS V14.01,2013-11-30 17:36:00,
2013-11-30 12:41:00,71.6,68.2,30.16,NE,44,4.0,11.0,89,0.12,,,0.12,0.00,VWS V14.01,2013-11-30 17:41:00,
2013-11-30 12:45:00,71.3,67.6,30.16,ENE,63,3.0,15.0,88,0.13,,,0.13,0.00,VWS V14.01,2013-11-30 17:45:00,
2013-11-30 12:46:00,71.4,67.7,30.16,NNE,13,6.0,6.0,88,0.13,,,0.13,0.00,VWS V14.01,2013-11-30 17:46:00,
2013-11-30 12:51:00,71.5,67.1,30.16,NE,42,7.0,13.0,86,0.13,,,0.13,0.00,VWS V14.01,2013-11-30 17:51:00,
2013-11-30 12:56:00,71.3,66.2,30.16,ENE,64,8.0,17.0,84,0.13,,,0.13,0.00,VWS V14.01,2013-11-30 17:56:00,
2013-11-30 13:00:00,71.2,66.1,30.16,NE,40,5.0,17.0,84,0.13,,,0.13,0.00,VWS V14.01,2013-11-30 18:00:00,
2013-11-30 13:01:00,71.2,66.5,30.16,ENE,64,4.0,9.0,85,0.12,,,0.13,0.00,VWS V14.01,2013-11-30 18:01:00,
2013-11-30 13:06:00,70.9,66.2,30.16,NE,46,0.0,11.0,85,0.13,,,0.14,0.00,VWS V14.01,2013-11-30 18:06:00,
2013-11-30 13:11:00,70.8,66.4,30.16,NE,48,2.0,11.0,86,0.13,,,0.14,0.00,VWS V14.01,2013-11-30 18:11:00,
2013-11-30 13:15:00,70.8,66.7,30.15,NE,49,0.0,11.0,87,0.14,,,0.15,0.00,VWS V14.01,2013-11-30 18:15:00,
2013-11-30 13:16:00,70.9,66.8,30.15,NE,49,0.0,1.0,87,0.07,,,0.15,0.00,VWS V14.01,2013-11-30 18:16:00,
2013-11-30 13:21:00,71.0,66.9,30.15,East,82,0.0,5.0,87,0.09,,,0.17,0.00,VWS V14.01,2013-11-30 18:21:00,
2013-11-30 13:26:00,71.3,67.6,30.15,East,89,2.0,5.0,88,0.09,,,0.17,0.00,VWS V14.01,2013-11-30 18:26:00,
2013-11-30 13:30:00,71.5,67.8,30.14,East,84,1.0,8.0,88,0.09,,,0.17,0.00,VWS V14.01,2013-11-30 18:30:00,
2013-11-30 13:31:00,71.6,67.9,30.14,NE,55,2.0,3.0,88,0.05,,,0.17,0.00,VWS V14.01,2013-11-30 18:31:00,
2013-11-30 13:36:00,72.2,68.4,30.14,NE,40,2.0,8.0,88,0.05,,,0.17,0.00,VWS V14.01,2013-11-30 18:36:00,
2013-11-30 13:41:00,72.1,67.7,30.14,North,11,9.0,11.0,86,0.05,,,0.17,0.00,VWS V14.01,2013-11-30 18:41:00,
2013-11-30 13:45:00,71.9,67.2,30.14,ENE,57,7.0,14.0,85,0.05,,,0.17,0.00,VWS V14.01,2013-11-30 18:45:00,
2013-11-30 13:46:00,71.9,67.2,30.14,WNW,294,2.0,7.0,85,0.04,,,0.17,0.00,VWS V14.01,2013-11-30 18:46:00,
2013-11-30 13:51:00,71.7,66.9,30.14,NNE,32,7.0,15.0,85,0.04,,,0.17,0.00,VWS V14.01,2013-11-30 18:51:00,
2013-11-30 13:56:00,71.3,66.6,30.14,North,11,10.0,15.0,85,0.04,,,0.17,0.00,VWS V14.01,2013-11-30 18:56:00,
2013-11-30 14:00:00,70.9,66.2,30.13,NNE,25,4.0,15.0,85,0.05,,,0.18,0.00,VWS V14.01,2013-11-30 19:00:00,
2013-11-30 14:01:00,70.8,66.4,30.13,North,5,11.0,11.0,86,0.05,,,0.18,0.00,VWS V14.01,2013-11-30 19:01:00,
2013-11-30 14:06:00,70.7,66.3,30.13,NNW,343,6.0,12.0,86,0.05,,,0.18,0.00,VWS V14.01,2013-11-30 19:06:00,
2013-11-30 14:11:00,70.4,66.3,30.13,North,355,6.0,12.0,87,0.06,,,0.19,0.00,VWS V14.01,2013-11-30 19:11:00,
2013-11-30 14:15:00,70.3,66.6,30.13,North,9,5.0,8.0,88,0.04,,,0.19,0.00,VWS V14.01,2013-11-30 19:15:00,
2013-11-30 14:20:00,70.1,66.4,30.12,NNE,24,4.0,9.0,88,0.04,,,0.19,0.00,VWS V14.01,2013-11-30 19:20:00,
2013-11-30 14:25:00,70.1,66.4,30.13,NNW,342,6.0,9.0,88,0.04,,,0.19,0.00,VWS V14.01,2013-11-30 19:25:00,
2013-11-30 14:30:00,70.1,66.7,30.12,NW,318,5.0,7.0,89,0.02,,,0.19,0.00,VWS V14.01,2013-11-30 19:30:00,
2013-11-30 14:35:00,70.1,66.7,30.13,NNW,340,4.0,8.0,89,0.02,,,0.19,0.00,VWS V14.01,2013-11-30 19:35:00,
2013-11-30 14:40:00,70.3,66.9,30.12,NNW,340,7.0,9.0,89,0.02,,,0.19,0.00,VWS V14.01,2013-11-30 19:40:00,
2013-11-30 14:45:00,70.3,66.9,30.12,NNE,14,3.0,4.0,89,0.02,,,0.19,0.00,VWS V14.01,2013-11-30 19:45:00,
2013-11-30 14:50:00,70.6,67.2,30.12,NE,34,5.0,8.0,89,0.02,,,0.19,0.00,VWS V14.01,2013-11-30 19:50:00,
2013-11-30 14:55:00,70.7,67.3,30.12,North,355,3.0,8.0,89,0.02,,,0.19,0.00,VWS V14.01,2013-11-30 19:55:00,
2013-11-30 15:00:00,71.0,67.3,30.12,NNE,15,5.0,7.0,88,0.01,,,0.19,0.00,VWS V14.01,2013-11-30 20:00:00,
2013-11-30 15:05:00,71.3,67.6,30.12,NNE,29,5.0,8.0,88,0.01,,,0.19,0.00,VWS V14.01,2013-11-30 20:05:00,
2013-11-30 15:10:00,71.8,67.7,30.12,NE,47,1.0,8.0,87,0.01,,,0.19,0.00,VWS V14.01,2013-11-30 20:10:00,
2013-11-30 15:15:00,72.3,67.9,30.12,NE,48,3.0,4.0,86,0.00,,,0.19,0.00,VWS V14.01,2013-11-30 20:15:00,
2013-11-30 15:20:00,72.4,67.3,30.12,North,355,10.0,11.0,84,0.00,,,0.19,0.00,VWS V14.01,2013-11-30 20:20:00,
2013-11-30 15:25:00,72.5,66.3,30.12,ENE,70,4.0,15.0,81,0.00,,,0.19,0.00,VWS V14.01,2013-11-30 20:25:00,
2013-11-30 15:30:00,72.7,66.5,30.12,ENE,61,9.0,12.0,81,0.00,,,0.19,0.00,VWS V14.01,2013-11-30 20:30:00,
2013-11-30 15:35:00,72.6,66.4,30.12,NE,38,2.0,12.0,81,0.00,,,0.19,0.00,VWS V14.01,2013-11-30 20:35:00,
2013-11-30 15:40:00,72.5,66.3,30.12,NNE,28,2.0,12.0,81,0.00,,,0.19,0.00,VWS V14.01,2013-11-30 20:40:00,
2013-11-30 15:45:00,72.4,66.6,30.12,NE,34,4.0,12.0,82,0.00,,,0.19,0.00,VWS V14.01,2013-11-30 20:45:00,
2013-11-30 15:46:00,72.4,66.6,30.12,NNE,25,3.0,7.0,82,0.00,,,0.19,0.00,VWS V14.01,2013-11-30 20:46:00,
2013-11-30 15:51:00,72.4,66.2,30.12,NNE,30,4.0,9.0,81,0.00,,,0.19,0.00,VWS V14.01,2013-11-30 20:51:00,
2013-11-30 15:56:00,72.6,66.4,30.12,NNE,17,9.0,9.0,81,0.00,,,0.19,0.00,VWS V14.01,2013-11-30 20:56:00,
2013-11-30 16:00:00,72.9,66.4,30.12,North,9,13.0,18.0,80,0.00,,,0.19,0.00,VWS V14.01,2013-11-30 21:00:00,
2013-11-30 16:01:00,73.0,66.1,30.12,NE,35,6.0,18.0,79,0.00,,,0.19,0.00,VWS V14.01,2013-11-30 21:01:00,
2013-11-30 16:06:00,73.3,66.0,30.12,NE,46,5.0,18.0,78,0.00,,,0.19,0.00,VWS V14.01,2013-11-30 21:06:00,
2013-11-30 16:11:00,73.4,66.1,30.12,NNE,25,5.0,18.0,78,0.00,,,0.19,0.00,VWS V14.01,2013-11-30 21:11:00,
2013-11-30 16:15:00,73.3,65.7,30.12,NE,36,4.0,18.0,77,0.00,,,0.19,0.00,VWS V14.01,2013-11-30 21:15:00,
2013-11-30 16:16:00,73.3,65.7,30.12,NNE,19,5.0,7.0,77,0.00,,,0.19,0.00,VWS V14.01,2013-11-30 21:16:00,
2013-11-30 16:21:00,73.3,65.7,30.12,NE,56,3.0,8.0,77,0.00,,,0.19,0.00,VWS V14.01,2013-11-30 21:21:00,
2013-11-30 16:26:00,73.3,65.7,30.12,NE,34,4.0,10.0,77,0.00,,,0.19,0.00,VWS V14.01,2013-11-30 21:26:00,
2013-11-30 16:30:00,73.5,65.9,30.12,NE,48,3.0,10.0,77,0.00,,,0.19,0.00,VWS V14.01,2013-11-30 21:30:00,
2013-11-30 16:31:00,73.5,65.9,30.12,NNE,22,2.0,5.0,77,0.00,,,0.19,0.00,VWS V14.01,2013-11-30 21:31:00,
2013-11-30 16:36:00,73.5,65.5,30.12,North,10,4.0,7.0,76,0.00,,,0.19,0.00,VWS V14.01,2013-11-30 21:36:00,
2013-11-30 16:41:00,73.5,65.1,30.12,NNE,32,3.0,9.0,75,0.00,,,0.19,0.00,VWS V14.01,2013-11-30 21:41:00,
2013-11-30 16:45:00,73.6,64.8,30.12,NNE,16,7.0,9.0,74,0.00,,,0.19,0.00,VWS V14.01,2013-11-30 21:45:00,
2013-11-30 16:46:00,73.6,64.8,30.12,NE,38,5.0,7.0,74,0.00,,,0.19,0.00,VWS V14.01,2013-11-30 21:46:00,
2013-11-30 16:51:00,73.7,64.1,30.12,North,5,4.0,8.0,72,0.00,,,0.19,0.00,VWS V14.01,2013-11-30 21:51:00,
2013-11-30 16:56:00,73.8,63.8,30.12,NNE,25,3.0,8.0,71,0.00,,,0.19,0.00,VWS V14.01,2013-11-30 21:56:00,
2013-11-30 17:00:00,73.9,63.5,30.12,NNE,33,4.0,10.0,70,0.00,,,0.19,0.00,VWS V14.01,2013-11-30 22:00:00,
2013-11-30 17:01:00,73.9,63.5,30.12,NE,51,3.0,5.0,70,0.00,,,0.19,0.00,VWS V14.01,2013-11-30 22:01:00,
2013-11-30 17:06:00,73.9,63.5,30.12,NE,38,5.0,8.0,70,0.00,,,0.19,0.00,VWS V14.01,2013-11-30 22:06:00,
2013-11-30 17:11:00,73.8,63.0,30.12,North,5,7.0,9.0,69,0.00,,,0.19,0.00,VWS V14.01,2013-11-30 22:11:00,
2013-11-30 17:15:00,73.8,63.0,30.12,NNE,17,3.0,9.0,69,0.00,,,0.19,0.00,VWS V14.01,2013-11-30 22:15:00,
2013-11-30 17:16:00,73.8,63.0,30.12,ENE,60,2.0,8.0,69,0.00,,,0.19,0.00,VWS V14.01,2013-11-30 22:16:00,
2013-11-30 17:21:00,73.6,62.4,30.12,NE,38,5.0,11.0,68,0.00,,,0.19,0.00,VWS V14.01,2013-11-30 22:21:00,
2013-11-30 17:26:00,73.5,62.3,30.12,NE,38,3.0,11.0,68,0.00,,,0.19,0.00,VWS V14.01,2013-11-30 22:26:00,
2013-11-30 17:30:00,73.4,62.2,30.12,NE,42,4.0,11.0,68,0.00,,,0.19,0.00,VWS V14.01,2013-11-30 22:30:00,
2013-11-30 17:31:00,73.3,62.1,30.12,NE,43,3.0,5.0,68,0.00,,,0.19,0.00,VWS V14.01,2013-11-30 22:31:00,
2013-11-30 17:36:00,73.1,61.9,30.12,NNE,24,3.0,9.0,68,0.00,,,0.19,0.00,VWS V14.01,2013-11-30 22:36:00,
2013-11-30 17:41:00,72.9,61.7,30.12,NE,36,4.0,9.0,68,0.00,,,0.19,0.00,VWS V14.01,2013-11-30 22:41:00,
2013-11-30 17:45:00,72.8,61.6,30.12,ENE,59,1.0,6.0,68,0.00,,,0.19,0.00,VWS V14.01,2013-11-30 22:45:00,
2013-11-30 17:50:00,72.7,61.5,30.13,NE,35,6.0,6.0,68,0.00,,,0.19,0.00,VWS V14.01,2013-11-30 22:50:00,
2013-11-30 17:55:00,72.7,61.5,30.12,NE,50,0.0,6.0,68,0.00,,,0.19,0.00,VWS V14.01,2013-11-30 22:55:00,
2013-11-30 18:00:00,72.4,61.7,30.12,NE,55,2.0,3.0,69,0.00,,,0.19,0.00,VWS V14.01,2013-11-30 23:00:00,
2013-11-30 18:05:00,72.1,61.4,30.12,NE,43,3.0,7.0,69,0.00,,,0.19,0.00,VWS V14.01,2013-11-30 23:05:00,
2013-11-30 18:10:00,72.1,61.4,30.12,North,355,5.0,7.0,69,0.00,,,0.19,0.00,VWS V14.01,2013-11-30 23:10:00,
2013-11-30 18:15:00,72.1,61.4,30.12,NE,38,6.0,6.0,69,0.00,,,0.19,0.00,VWS V14.01,2013-11-30 23:15:00,
2013-11-30 18:20:00,72.1,61.4,30.12,ENE,57,2.0,6.0,69,0.00,,,0.19,0.00,VWS V14.01,2013-11-30 23:20:00,
2013-11-30 18:25:00,72.0,61.3,30.12,NE,46,6.0,7.0,69,0.00,,,0.19,0.00,VWS V14.01,2013-11-30 23:25:00,
2013-11-30 18:30:00,71.9,61.2,30.12,NE,48,3.0,5.0,69,0.00,,,0.19,0.00,VWS V14.01,2013-11-30 23:30:00,
2013-11-30 18:35:00,71.9,61.6,30.12,NNE,29,3.0,5.0,70,0.00,,,0.19,0.00,VWS V14.01,2013-11-30 23:35:00,
2013-11-30 18:40:00,71.8,61.5,30.12,NNE,19,4.0,6.0,70,0.00,,,0.19,0.00,VWS V14.01,2013-11-30 23:40:00,
2013-11-30 18:45:00,71.8,61.5,30.12,NNE,30,2.0,4.0,70,0.00,,,0.19,0.00,VWS V14.01,2013-11-30 23:45:00,
2013-11-30 18:50:00,71.7,61.8,30.12,NNE,17,3.0,6.0,71,0.00,,,0.19,0.00,VWS V14.01,2013-11-30 23:50:00,
2013-11-30 18:55:00,71.5,61.6,30.12,NNE,15,3.0,6.0,71,0.00,,,0.19,0.00,VWS V14.01,2013-11-30 23:55:00,
2013-11-30 19:00:00,71.4,61.5,30.12,NNE,23,1.0,4.0,71,0.00,,,0.19,0.00,VWS V14.01,2013-12-01 00:00:00,
2013-11-30 19:05:00,71.2,61.7,30.12,NE,36,1.0,6.0,72,0.00,,,0.19,0.00,VWS V14.01,2013-12-01 00:05:00,
2013-11-30 19:10:00,71.1,61.6,30.13,NE,36,3.0,6.0,72,0.00,,,0.19,0.00,VWS V14.01,2013-12-01 00:10:00,
2013-11-30 19:15:00,71.0,61.9,30.12,North,9,2.0,2.0,73,0.00,,,0.19,0.00,VWS V14.01,2013-12-01 00:15:00,
2013-11-30 19:20:00,70.9,61.8,30.13,NNE,16,3.0,4.0,73,0.00,,,0.19,0.00,VWS V14.01,2013-12-01 00:20:00,
2013-11-30 19:25:00,70.9,61.8,30.13,NNE,30,4.0,5.0,73,0.00,,,0.19,0.00,VWS V14.01,2013-12-01 00:25:00,
2013-11-30 19:30:00,70.9,61.8,30.13,NNE,28,2.0,3.0,73,0.00,,,0.19,0.00,VWS V14.01,2013-12-01 00:30:00,
2013-11-30 19:35:00,70.9,62.2,30.13,NNE,19,3.0,4.0,74,0.00,,,0.19,0.00,VWS V14.01,2013-12-01 00:35:00,
2013-11-30 19:40:00,71.0,62.3,30.13,NNE,22,3.0,4.0,74,0.00,,,0.19,0.00,VWS V14.01,2013-12-01 00:40:00,
2013-11-30 19:45:00,71.0,62.3,30.14,NNE,22,2.0,3.0,74,0.00,,,0.19,0.00,VWS V14.01,2013-12-01 00:45:00,
2013-11-30 19:50:00,70.9,62.6,30.14,NNE,22,2.0,4.0,75,0.00,,,0.19,0.00,VWS V14.01,2013-12-01 00:50:00,
2013-11-30 19:55:00,70.8,62.5,30.14,NNE,22,1.0,4.0,75,0.00,,,0.19,0.00,VWS V14.01,2013-12-01 00:55:00,
2013-11-30 20:00:00,70.5,62.2,30.14,NNE,22,1.0,2.0,75,0.00,,,0.19,0.00,VWS V14.01,2013-12-01 01:00:00,
2013-11-30 20:05:00,70.3,62.0,30.14,NNE,22,0.0,2.0,75,0.00,,,0.19,0.00,VWS V14.01,2013-12-01 01:05:00,
2013-11-30 20:10:00,70.2,62.3,30.14,NNE,22,3.0,3.0,76,0.00,,,0.19,0.00,VWS V14.01,2013-12-01 01:10:00,
2013-11-30 20:15:00,70.3,62.4,30.14,NNE,22,2.0,3.0,76,0.00,,,0.19,0.00,VWS V14.01,2013-12-01 01:15:00,
2013-11-30 20:20:00,70.3,62.4,30.14,NNE,22,2.0,3.0,76,0.00,,,0.19,0.00,VWS V14.01,2013-12-01 01:20:00,
2013-11-30 20:25:00,70.3,62.4,30.14,NNE,22,1.0,4.0,76,0.00,,,0.19,0.00,VWS V14.01,2013-12-01 01:25:00,
2013-11-30 20:30:00,70.2,62.3,30.14,NNE,22,2.0,2.0,76,0.00,,,0.19,0.00,VWS V14.01,2013-12-01 01:30:00,
2013-11-30 20:35:00,70.0,62.1,30.14,NNE,22,2.0,3.0,76,0.00,,,0.19,0.00,VWS V14.01,2013-12-01 01:35:00,
2013-11-30 20:40:00,69.9,62.0,30.14,NNE,22,2.0,3.0,76,0.00,,,0.19,0.00,VWS V14.01,2013-12-01 01:40:00,
2013-11-30 20:43:00,69.9,62.0,30.14,NNE,22,2.0,3.0,76,0.00,,,0.19,0.00,VWS V14.01,2013-12-01 01:43:00,
2013-11-30 20:45:00,70.0,62.1,30.14,NNE,22,2.0,4.0,76,0.00,,,0.19,0.00,VWS V14.01,2013-12-01 01:45:00,
2013-11-30 20:48:00,70.1,62.2,30.14,NNE,22,1.0,3.0,76,0.00,,,0.19,0.00,VWS V14.01,2013-12-01 01:48:00,
2013-11-30 20:53:00,70.1,61.8,30.14,NNE,22,2.0,3.0,75,0.00,,,0.19,0.00,VWS V14.01,2013-12-01 01:53:00,
2013-11-30 20:58:00,70.0,61.7,30.14,NNE,22,2.0,3.0,75,0.00,,,0.19,0.00,VWS V14.01,2013-12-01 01:58:00,
2013-11-30 21:00:00,70.0,61.7,30.14,NNE,22,0.0,3.0,75,0.00,,,0.19,0.00,VWS V14.01,2013-12-01 02:00:00,
2013-11-30 21:03:00,69.9,61.6,30.14,NNE,22,0.0,1.0,75,0.00,,,0.19,0.00,VWS V14.01,2013-12-01 02:03:00,
2013-11-30 21:08:00,69.7,61.4,30.14,NNE,22,0.0,1.0,75,0.00,,,0.19,0.00,VWS V14.01,2013-12-01 02:08:00,
2013-11-30 21:13:00,69.5,61.2,30.13,NNE,22,0.0,1.0,75,0.00,,,0.19,0.00,VWS V14.01,2013-12-01 02:13:00,
2013-11-30 21:15:00,69.4,61.5,30.14,NNE,22,0.0,1.0,76,0.00,,,0.19,0.00,VWS V14.01,2013-12-01 02:15:00,
2013-11-30 21:18:00,69.2,61.3,30.14,NNE,22,0.0,0.0,76,0.00,,,0.19,0.00,VWS V14.01,2013-12-01 02:18:00,
2013-11-30 21:23:00,69.2,61.3,30.14,NNE,22,0.0,1.0,76,0.00,,,0.19,0.00,VWS V14.01,2013-12-01 02:23:00,
2013-11-30 21:30:00,69.1,61.2,30.14,NNE,22,0.0,1.0,76,0.00,,,0.19,0.00,VWS V14.01,2013-12-01 02:30:00,
2013-11-30 21:45:00,68.8,61.7,30.14,NNE,22,0.0,0.0,78,0.00,,,0.19,0.00,VWS V14.01,2013-12-01 02:45:00,
2013-11-30 22:00:00,68.1,61.7,30.14,NNE,22,0.0,0.0,80,0.00,,,0.19,0.00,VWS V14.01,2013-12-01 03:00:00,
2013-11-30 22:15:00,67.5,61.5,30.13,NNE,22,0.0,0.0,81,0.00,,,0.19,0.00,VWS V14.01,2013-12-01 03:15:00,
2013-11-30 22:30:00,67.2,62.2,30.13,NNE,22,0.0,0.0,84,0.00,,,0.19,0.00,VWS V14.01,2013-12-01 03:30:00,
2013-11-30 22:45:00,66.8,61.8,30.13,NNE,22,0.0,1.0,84,0.00,,,0.19,0.00,VWS V14.01,2013-12-01 03:45:00,
2013-11-30 23:00:00,66.7,62.4,30.13,NNE,22,1.0,2.0,86,0.00,,,0.19,0.00,VWS V14.01,2013-12-01 04:00:00,
2013-11-30 23:15:00,66.1,62.1,30.12,NNE,22,0.0,0.0,87,0.00,,,0.19,0.00,VWS V14.01,2013-12-01 04:15:00,
2013-11-30 23:30:00,65.7,61.7,30.12,NNE,22,1.0,3.0,87,0.00,,,0.19,0.00,VWS V14.01,2013-12-01 04:30:00,
2013-11-30 23:45:00,65.3,61.3,30.11,NNE,22,0.0,2.0,87,0.00,,,0.19,0.00,VWS V14.01,2013-12-01 04:45:00,